| time (UTC) | temp F | wind direction | speed knots | gust knots | rain 1hr in | rain 24hr in | rain mn in | humidity % | barometer mb |
| 20260504081534 | 55 | 212 | 4.3 | 9.6 | 0.00 | 0.00 | 0.00 | 48 | 999.2 |
| 20260504081034 | 55 | 188 | 4.3 | 8.7 | 0.00 | 0.00 | 0.00 | 48 | 999.3 |
| 20260504080533 | 55 | 230 | 4.3 | 8.7 | 0.00 | 0.00 | 0.00 | 47 | 999.4 |
| 20260504050501 | 56 | 225 | 1.7 | 3.5 | 0.00 | 0.00 | 0.00 | 48 | 1002.8 |
| 20260504050002 | 56 | 226 | 1.7 | 2.6 | 0.00 | 0.00 | 0.00 | 47 | 1002.9 |
| 20260504044500 | 56 | 238 | 1.7 | 2.6 | 0.00 | 0.00 | 0.00 | 48 | 1003.2 |
| 20260504043502 | 56 | 239 | 1.7 | 3.5 | 0.00 | 0.00 | 0.00 | 47 | 1003.4 |
| 20260504042502 | 56 | 243 | 1.7 | 2.6 | 0.00 | 0.00 | 0.00 | 47 | 1003.6 |
| 20260504042001 | 56 | 243 | 0.9 | 1.7 | 0.00 | 0.00 | 0.00 | 47 | 1003.4 |
| 20260504041501 | 56 | 243 | 0.9 | 1.7 | 0.00 | 0.00 | 0.00 | 47 | 1003.6 |
| 20260504041000 | 56 | 244 | 0.9 | 2.6 | 0.00 | 0.00 | 0.00 | 48 | 1003.7 |
| 20260504035502 | 57 | 244 | 0.9 | 1.7 | 0.00 | 0.00 | 0.00 | 47 | 1004.1 |
| 20260504035002 | 57 | 244 | 0.0 | 1.7 | 0.00 | 0.00 | 0.00 | 46 | 1004.3 |
| 20260504034500 | 58 | 244 | 0.0 | 0.0 | 0.00 | 0.00 | 0.00 | 46 | 1004.3 |
| 20260504034003 | 58 | 244 | 0.0 | 0.0 | 0.00 | 0.00 | 0.00 | 44 | 1004.4 |
| 20260504033501 | 58 | 244 | 0.0 | 0.0 | 0.00 | 0.00 | 0.00 | 44 | 1004.6 |
| 20260504033003 | 58 | 244 | 0.0 | 0.0 | 0.00 | 0.00 | 0.00 | 44 | 1004.7 |
| 20260504032001 | 59 | 244 | 0.0 | 0.0 | 0.00 | 0.00 | 0.00 | 42 | 1004.9 |
| 20260504031500 | 60 | 244 | 0.0 | 0.0 | 0.00 | 0.00 | 0.00 | 41 | 1004.8 |
| 20260504031001 | 60 | 244 | 0.0 | 0.0 | 0.00 | 0.00 | 0.00 | 40 | 1004.8 |
| 20260504030501 | 61 | 244 | 0.0 | 0.0 | 0.00 | 0.00 | 0.00 | 40 | 1004.8 |
| 20260504030001 | 61 | 244 | 0.0 | 0.0 | 0.00 | 0.00 | 0.00 | 38 | 1004.8 |
| 20260504025502 | 62 | 244 | 0.0 | 0.0 | 0.00 | 0.00 | 0.00 | 37 | 1004.8 |
| 20260504025003 | 62 | 244 | 0.0 | 0.0 | 0.00 | 0.00 | 0.00 | 36 | 1004.8 |
| 20260504024502 | 62 | 244 | 0.0 | 0.0 | 0.00 | 0.00 | 0.00 | 36 | 1004.9 |
| 20260504024003 | 62 | 244 | 0.0 | 0.0 | 0.00 | 0.00 | 0.00 | 36 | 1004.8 |
| 20260504023502 | 62 | 244 | 0.0 | 1.7 | 0.00 | 0.00 | 0.00 | 36 | 1004.9 |
| 20260504023002 | 63 | 244 | 0.9 | 1.7 | 0.00 | 0.00 | 0.00 | 35 | 1004.9 |
| 20260504022502 | 63 | 244 | 0.9 | 1.7 | 0.00 | 0.00 | 0.00 | 34 | 1004.9 |
| 20260504022002 | 63 | 244 | 0.9 | 1.7 | 0.00 | 0.00 | 0.00 | 34 | 1004.9 |
| 20260504021501 | 64 | 244 | 0.0 | 1.7 | 0.00 | 0.00 | 0.00 | 34 | 1004.9 |
| 20260504021003 | 64 | 244 | 0.9 | 2.6 | 0.00 | 0.00 | 0.00 | 33 | 1005.0 |
| 20260504020500 | 64 | 244 | 1.7 | 6.1 | 0.00 | 0.00 | 0.00 | 33 | 1004.9 |
| 20260504020001 | 64 | 244 | 1.7 | 6.1 | 0.00 | 0.00 | 0.00 | 33 | 1005.0 |
| 20260504015001 | 65 | 246 | 1.7 | 4.3 | 0.00 | 0.00 | 0.00 | 32 | 1005.0 |
| 20260504014501 | 65 | 244 | 1.7 | 4.3 | 0.00 | 0.00 | 0.00 | 31 | 1005.0 |
| 20260504014001 | 65 | 251 | 1.7 | 5.2 | 0.00 | 0.00 | 0.00 | 31 | 1005.0 |
| 20260504013502 | 66 | 254 | 1.7 | 6.1 | 0.00 | 0.00 | 0.00 | 31 | 1005.0 |
| 20260504013002 | 66 | 239 | 1.7 | 6.1 | 0.00 | 0.00 | 0.00 | 30 | 1005.1 |
| 20260504012502 | 66 | 229 | 1.7 | 4.3 | 0.00 | 0.00 | 0.00 | 30 | 1005.2 |
| 20260504012002 | 67 | 240 | 1.7 | 6.1 | 0.00 | 0.00 | 0.00 | 30 | 1005.2 |
| 20260504011502 | 67 | 244 | 1.7 | 6.1 | 0.00 | 0.00 | 0.00 | 29 | 1005.4 |
| 20260504010002 | 67 | 246 | 2.6 | 8.7 | 0.00 | 0.00 | 0.00 | 28 | 1005.3 |
| 20260504005502 | 67 | 259 | 3.5 | 8.7 | 0.00 | 0.00 | 0.00 | 27 | 1005.3 |
| 20260504003002 | 68 | 264 | 3.5 | 9.6 | 0.00 | 0.00 | 0.00 | 28 | 1005.2 |
| 20260504002502 | 68 | 252 | 3.5 | 10.4 | 0.00 | 0.00 | 0.00 | 27 | 1005.3 |
| 20260504001501 | 69 | 228 | 3.5 | 7.8 | 0.00 | 0.00 | 0.00 | 27 | 1005.5 |
| 20260504001001 | 69 | 278 | 2.6 | 7.8 | 0.00 | 0.00 | 0.00 | 27 | 1005.8 |
| 20260504000501 | 69 | 206 | 2.6 | 7.0 | 0.00 | 0.00 | 0.00 | 27 | 1005.5 |
| 20260504000001 | 69 | 249 | 3.5 | 7.8 | 0.00 | 0.00 | 0.00 | 27 | 1005.6 |
| 20260503235501 | 69 | 259 | 2.6 | 7.8 | 0.00 | 0.00 | 0.00 | 27 | 1005.8 |
| 20260503235001 | 69 | 293 | 2.6 | 7.8 | 0.00 | 0.00 | 0.00 | 26 | 1005.6 |
| 20260503233957 | 70 | 299 | 1.7 | 7.8 | 0.00 | 0.00 | 0.00 | 26 | 1005.4 |
| 20260503233451 | 70 | 334 | 1.7 | 5.2 | 0.00 | 0.00 | 0.00 | 26 | 1005.3 |
| 20260503232945 | 70 | 230 | 2.6 | 7.8 | 0.00 | 0.00 | 0.00 | 25 | 1005.4 |
| 20260503232438 | 70 | 339 | 3.5 | 7.8 | 0.00 | 0.00 | 0.00 | 25 | 1005.5 |
| 20260503231931 | 70 | 325 | 4.3 | 9.6 | 0.00 | 0.00 | 0.00 | 25 | 1005.4 |
| 20260503231430 | 71 | 250 | 4.3 | 13.0 | 0.00 | 0.00 | 0.00 | 25 | 1005.6 |
| 20260503230930 | 71 | 294 | 3.5 | 13.0 | 0.00 | 0.00 | 0.00 | 24 | 1005.6 |
| 20260503230429 | 72 | 250 | 3.5 | 11.3 | 0.00 | 0.00 | 0.00 | 24 | 1005.9 |
| 20260503225930 | 72 | 295 | 2.6 | 8.7 | 0.00 | 0.00 | 0.00 | 24 | 1005.9 |
| 20260503224930 | 72 | 338 | 2.6 | 10.4 | 0.00 | 0.00 | 0.00 | 24 | 1006.1 |
| 20260503223930 | 72 | 294 | 1.7 | 7.0 | 0.00 | 0.00 | 0.00 | 24 | 1006.0 |
| 20260503223429 | 71 | 67 | 2.6 | 7.0 | 0.00 | 0.00 | 0.00 | 23 | 1006.0 |
| 20260503222929 | 71 | 272 | 3.5 | 7.0 | 0.00 | 0.00 | 0.00 | 23 | 1006.1 |
| 20260503221929 | 71 | 216 | 3.5 | 11.3 | 0.00 | 0.00 | 0.00 | 23 | 1006.3 |
| 20260503221431 | 71 | 323 | 3.5 | 9.6 | 0.00 | 0.00 | 0.00 | 23 | 1006.2 |
| 20260503220929 | 72 | 289 | 2.6 | 9.6 | 0.00 | 0.00 | 0.00 | 23 | 1006.2 |
| 20260503220429 | 71 | 355 | 3.5 | 9.6 | 0.00 | 0.00 | 0.00 | 24 | 1006.3 |
| 20260503215929 | 71 | 271 | 3.5 | 10.4 | 0.00 | 0.00 | 0.00 | 23 | 1006.3 |
| 20260503215431 | 71 | 0 | 3.5 | 10.4 | 0.00 | 0.00 | 0.00 | 23 | 1006.4 |
| 20260503214929 | 71 | 327 | 3.5 | 11.3 | 0.00 | 0.00 | 0.00 | 23 | 1006.4 |
| 20260503214430 | 72 | 322 | 3.5 | 11.3 | 0.00 | 0.00 | 0.00 | 22 | 1006.3 |
| 20260503213929 | 72 | 271 | 3.5 | 7.8 | 0.00 | 0.00 | 0.00 | 24 | 1006.4 |
| 20260503213430 | 72 | 295 | 3.5 | 10.4 | 0.00 | 0.00 | 0.00 | 24 | 1006.5 |
| 20260503212930 | 72 | 338 | 3.5 | 10.4 | 0.00 | 0.00 | 0.00 | 24 | 1006.3 |
| 20260503212431 | 73 | 261 | 3.5 | 9.6 | 0.00 | 0.00 | 0.00 | 24 | 1006.5 |
| 20260503211930 | 73 | 253 | 1.7 | 7.8 | 0.00 | 0.00 | 0.00 | 26 | 1006.5 |
| 20260503211429 | 72 | 329 | 3.5 | 11.3 | 0.00 | 0.00 | 0.00 | 26 | 1006.5 |
| 20260503210929 | 72 | 278 | 4.3 | 11.3 | 0.00 | 0.00 | 0.00 | 25 | 1006.5 |
| 20260503210431 | 72 | 244 | 3.5 | 10.4 | 0.00 | 0.00 | 0.00 | 27 | 1006.7 |
| 20260503205929 | 72 | 317 | 2.6 | 6.1 | 0.00 | 0.00 | 0.00 | 27 | 1006.7 |
| 20260503205429 | 72 | 339 | 2.6 | 8.7 | 0.00 | 0.00 | 0.00 | 28 | 1006.8 |
| 20260503204929 | 71 | 330 | 4.3 | 10.4 | 0.00 | 0.00 | 0.00 | 28 | 1006.8 |
| 20260503204430 | 71 | 337 | 4.3 | 13.0 | 0.00 | 0.00 | 0.00 | 28 | 1006.8 |
| 20260503203930 | 71 | 250 | 3.5 | 13.0 | 0.00 | 0.00 | 0.00 | 28 | 1006.7 |
| 20260503203431 | 71 | 324 | 3.5 | 8.7 | 0.00 | 0.00 | 0.00 | 29 | 1006.7 |
| 20260503202927 | 71 | 323 | 3.5 | 12.2 | 0.00 | 0.00 | 0.00 | 29 | 1006.9 |
| 20260503202424 | 71 | 294 | 4.3 | 12.2 | 0.00 | 0.00 | 0.00 | 30 | 1006.8 |
| 20260503201923 | 71 | 252 | 4.3 | 13.9 | 0.00 | 0.00 | 0.00 | 30 | 1006.9 |
| 20260503201425 | 71 | 274 | 3.5 | 13.9 | 0.00 | 0.00 | 0.00 | 30 | 1007.0 |
| 20260503200924 | 70 | 289 | 5.2 | 13.0 | 0.00 | 0.00 | 0.00 | 29 | 1006.9 |
| 20260503200425 | 70 | 39 | 4.3 | 13.0 | 0.00 | 0.00 | 0.00 | 27 | 1007.0 |
| 20260503195424 | 70 | 11 | 4.3 | 11.3 | 0.00 | 0.00 | 0.00 | 28 | 1007.1 |
| 20260503194925 | 70 | 325 | 4.3 | 9.6 | 0.00 | 0.00 | 0.00 | 27 | 1007.3 |
| 20260503194422 | 71 | 326 | 3.5 | 9.6 | 0.00 | 0.00 | 0.00 | 28 | 1007.4 |
| 20260503193923 | 70 | 227 | 4.3 | 13.0 | 0.00 | 0.00 | 0.00 | 28 | 1007.4 |
| 20260503193421 | 70 | 296 | 4.3 | 13.0 | 0.00 | 0.00 | 0.00 | 27 | 1007.6 |
| 20260503192922 | 71 | 250 | 4.3 | 10.4 | 0.00 | 0.00 | 0.00 | 27 | 1007.5 |
| 20260503192422 | 70 | 336 | 4.3 | 13.0 | 0.00 | 0.00 | 0.00 | 27 | 1007.4 |
| 20260503191923 | 71 | 347 | 3.5 | 13.0 | 0.00 | 0.00 | 0.00 | 27 | 1007.4 |
| 20260503191422 | 71 | 246 | 4.3 | 9.6 | 0.00 | 0.00 | 0.00 | 26 | 1007.4 |
| 20260503190922 | 71 | 321 | 3.5 | 9.6 | 0.00 | 0.00 | 0.00 | 26 | 1007.5 |
| 20260503190422 | 70 | 312 | 3.5 | 8.7 | 0.00 | 0.00 | 0.00 | 27 | 1007.4 |
| 20260503185921 | 70 | 304 | 3.5 | 8.7 | 0.00 | 0.00 | 0.00 | 28 | 1007.5 |
| 20260503185421 | 70 | 53 | 3.5 | 13.0 | 0.00 | 0.00 | 0.00 | 29 | 1007.5 |
| 20260503184419 | 70 | 9 | 3.5 | 10.4 | 0.00 | 0.00 | 0.00 | 29 | 1007.5 |
| 20260503183921 | 71 | 324 | 3.5 | 10.4 | 0.00 | 0.00 | 0.00 | 31 | 1007.5 |
| 20260503183417 | 70 | 216 | 2.6 | 10.4 | 0.00 | 0.00 | 0.00 | 33 | 1007.6 |
| 20260503182918 | 70 | 339 | 3.5 | 10.4 | 0.00 | 0.00 | 0.00 | 33 | 1007.5 |
| 20260503182413 | 70 | 9 | 4.3 | 10.4 | 0.00 | 0.00 | 0.00 | 30 | 1007.6 |
| 20260503181913 | 70 | 30 | 3.5 | 8.7 | 0.00 | 0.00 | 0.00 | 31 | 1007.8 |
| 20260503181414 | 70 | 329 | 2.6 | 8.7 | 0.00 | 0.00 | 0.00 | 34 | 1007.6 |
| 20260503180914 | 70 | 302 | 3.5 | 8.7 | 0.00 | 0.00 | 0.00 | 34 | 1007.7 |
| 20260503180414 | 69 | 332 | 3.5 | 12.2 | 0.00 | 0.00 | 0.00 | 33 | 1007.8 |
| 20260503175913 | 69 | 328 | 4.3 | 12.2 | 0.00 | 0.00 | 0.00 | 33 | 1007.8 |
| 20260503175414 | 70 | 296 | 3.5 | 9.6 | 0.00 | 0.00 | 0.00 | 34 | 1007.8 |
| 20260503174915 | 70 | 295 | 3.5 | 10.4 | 0.00 | 0.00 | 0.00 | 35 | 1008.0 |
| 20260503174414 | 70 | 311 | 3.5 | 10.4 | 0.00 | 0.00 | 0.00 | 35 | 1008.0 |
| 20260503173913 | 69 | 350 | 3.5 | 8.7 | 0.00 | 0.00 | 0.00 | 36 | 1007.9 |
| 20260503172915 | 69 | 347 | 3.5 | 9.6 | 0.00 | 0.00 | 0.00 | 37 | 1008.0 |
| 20260503172413 | 69 | 5 | 3.5 | 9.6 | 0.00 | 0.00 | 0.00 | 38 | 1007.9 |
| 20260503171913 | 68 | 313 | 4.3 | 8.7 | 0.00 | 0.00 | 0.00 | 38 | 1007.8 |
| 20260503171413 | 68 | 324 | 3.5 | 9.6 | 0.00 | 0.00 | 0.00 | 39 | 1007.7 |
| 20260503170912 | 68 | 314 | 4.3 | 12.2 | 0.00 | 0.00 | 0.00 | 39 | 1008.0 |
| 20260503170411 | 68 | 299 | 4.3 | 12.2 | 0.00 | 0.00 | 0.00 | 39 | 1008.1 |
| 20260503150902 | 64 | 307 | 5.2 | 13.0 | 0.00 | 0.00 | 0.00 | 43 | 1007.7 |
| 20260503150402 | 63 | 345 | 5.2 | 13.0 | 0.00 | 0.00 | 0.00 | 44 | 1007.6 |
| 20260503131401 | 57 | 355 | 3.5 | 9.6 | 0.00 | 0.00 | 0.00 | 52 | 1007.0 |
| 20260503130902 | 57 | 315 | 2.6 | 7.0 | 0.00 | 0.00 | 0.00 | 51 | 1006.8 |
| 20260503130402 | 57 | 30 | 2.6 | 8.7 | 0.00 | 0.00 | 0.00 | 51 | 1006.9 |
| 20260503110402 | 53 | 219 | 1.7 | 5.2 | 0.00 | 0.00 | 0.00 | 52 | 1005.5 |